Location: Bidart
(43.4376°N, 1.5913°W)
Time: 07:44:20
(UTC+00:00)

USA 229 DEB - Pass Details

Date: 16 April 2026
Orbit: 844 x 1364 km, 63.4° (Epoch: 10 January)

Event Time Altitude Azimuth Distance (km) Brightness Sun altitude
Rises 02:35:39 0° 319° (NW) 4,052 6.8 -26.6°
Reaches altitude 10° 02:38:21 10° 315° (NW) 3,155 6.2 -26.3°
Maximum altitude 02:45:44 51° 242° (WSW) 1,584 4.1 -25.4°
Enters shadow 02:47:24 45° 208° (SSW) 1,720 4.3 -25.1°
